Ogden Hill AFB, UT

12:07 AM MDT on May 29, 2017 (GMT -0600)
Hill Air Force Base

Weather History for KHIF - September, 2013

Change the Weather History Date:

Saturday, September 7, 2013

  Actual Average Record
Temperature  
Mean Temperature 71 °F -  
Max Temperature 81 °F 76 °F 87 °F (2005)
Min Temperature 61 °F 55 °F 44 °F (2001)
Cooling Degree Days 6    
Growing Degree Days 21 (Base 50)    
Moisture  
Dew Point 54 °F    
Average Humidity 59    
Maximum Humidity 86    
Minimum Humidity 30    
Precipitation  
Precipitation 0.15 in - - ()
Sea Level Pressure  
Sea Level Pressure 30.07 in    
Wind  
Wind Speed 8 mph (NE)    
Max Wind Speed 21 mph    
Max Gust Speed 26 mph    
Visibility 10 miles    
Events Rain    
Averages and records for this station are not official NWS values.
T = Trace of Precipitation, MM = Missing Value Source: NWS Daily Summary

Daily Weather History Graph

Daily Weather History Graph

Search for Another Location

Airport or City:

Trip Planner

Search our weather history database for the weather conditions in past years. The results will help you decide how hot, cold, wet, or windy it might be!

Date:

Astronomy

Sep. 07, 2013 Rise Set
Actual Time 7:00 AM MDT 7:50 PM MDT
Civil Twilight 6:32 AM MDT 8:17 PM MDT
Nautical Twilight 5:59 AM MDT 8:51 PM MDT
Astronomical Twilight 5:25 AM MDT 9:25 PM MDT
Moon 9:20 AM MDT (9/7) 8:48 PM MDT (9/7)
Length of Visible Light 13h 45m
Length of Day
12h 49m
Waxing Crescent, 5% of the Moon is Illuminated
Sep 7
Waxing Crescent
Sep 12
First Quarter
Sep 19
Full
Sep 26
Last Quarter
Oct 4
New

Hourly Weather History & Observations

Time (MDT) Temp. Dew Point Humidity Pressure Visibility Wind Dir Wind Speed Gust Speed Precip Events Conditions
12:35 AM 68.0 °F 57.2 °F 68% 30.19 in 10.0 mi SE 9.2 mph - N/A Rain Light Rain
12:46 AM 68.0 °F 55.4 °F 64% 30.19 in 10.0 mi ESE 8.1 mph - N/A   Overcast
12:54 AM 68.0 °F 55.4 °F 64% 30.19 in 10.0 mi SE 6.9 mph - N/A Rain Light Rain
12:58 AM 68.2 °F 55.8 °F 64% 30.00 in 10.0 mi SSE 5.8 mph - 0.00 in Rain Light Rain
1:13 AM 68.0 °F 55.4 °F 64% 30.19 in 10.0 mi North 4.6 mph - N/A Rain Light Rain
1:30 AM 68.0 °F 53.6 °F 60% 30.18 in 10.0 mi Variable 2.3 mph - N/A   Scattered Clouds
1:36 AM 68.0 °F 55.4 °F 64% 30.18 in 10.0 mi NE 3.5 mph - N/A Rain Light Rain
1:48 AM 69.8 °F 55.4 °F 60% 30.17 in 10.0 mi NE 2.3 mph - N/A   Mostly Cloudy
1:58 AM 69.4 °F 56.3 °F 63% 29.99 in 10.0 mi NE 2.3 mph - 0.01 in   Overcast
2:48 AM 68.0 °F 53.6 °F 60% 30.16 in 10.0 mi NE 8.1 mph - N/A   Overcast
2:58 AM 68.0 °F 53.2 °F 59% 29.97 in 10.0 mi NE 6.9 mph - N/A   Mostly Cloudy
3:58 AM 66.6 °F 51.4 °F 58% 29.96 in 10.0 mi ENE 9.2 mph - N/A   Partly Cloudy
4:58 AM 67.8 °F 50.7 °F 54% 29.94 in 10.0 mi ENE 8.1 mph - N/A   Overcast
5:58 AM 69.1 °F 50.5 °F 52% 29.96 in 10.0 mi NNE 2.3 mph - N/A   Overcast
6:58 AM 65.8 °F 54.3 °F 66% 30.00 in 10.0 mi Variable 5.8 mph - N/A   Overcast
7:58 AM 66.2 °F 50.5 °F 57% 30.00 in 10.0 mi Variable 4.6 mph - N/A   Mostly Cloudy
8:58 AM 68.5 °F 50.7 °F 53% 29.99 in 10.0 mi East 1.2 mph - N/A   Mostly Cloudy
9:58 AM 72.3 °F 52.5 °F 50% 30.01 in 10.0 mi NNE 4.6 mph - N/A   Partly Cloudy
10:58 AM 75.6 °F 54.1 °F 47% 30.02 in 10.0 mi North 11.5 mph - N/A   Scattered Clouds
11:18 AM 77.0 °F 55.4 °F 47% 30.19 in 10.0 mi North 11.5 mph - N/A   Mostly Cloudy
11:38 AM 75.2 °F 55.4 °F 50% 30.19 in 10.0 mi North 9.2 mph - N/A   Mostly Cloudy
11:58 AM 75.4 °F 56.3 °F 51% 30.03 in 10.0 mi North 11.5 mph - N/A   Scattered Clouds
12:58 PM 80.8 °F 49.6 °F 34% 29.99 in 10.0 mi North 11.5 mph - N/A   Clear
1:58 PM 81.0 °F 51.3 °F 36% 29.98 in 10.0 mi NNW 17.3 mph 23.0 mph N/A   Clear
2:58 PM 80.8 °F 50.0 °F 34% 29.96 in 10.0 mi NNW 17.3 mph - N/A   Partly Cloudy
3:58 PM 81.3 °F 46.9 °F 30% 29.94 in 10.0 mi NNW 20.7 mph 26.5 mph N/A   Clear
4:58 PM 78.3 °F 46.0 °F 32% 29.96 in 10.0 mi NW 10.4 mph - N/A   Scattered Clouds
5:18 PM 77.0 °F 46.4 °F 34% 30.16 in 10.0 mi West 6.9 mph - N/A   Mostly Cloudy
5:25 PM 77.0 °F 48.2 °F 36% 30.17 in 10.0 mi SW 8.1 mph - N/A Rain Light Rain
5:56 PM 66.2 °F 60.8 °F 83% 30.21 in 10.0 mi South 15.0 mph 26.5 mph N/A Rain Light Rain
5:58 PM 66.9 °F 60.4 °F 80% 30.06 in 10.0 mi SSE 15.0 mph 26.5 mph 0.01 in Rain Light Rain
6:58 PM 62.6 °F 58.5 °F 86% 30.09 in 9.0 mi South 6.9 mph - 0.11 in Rain Light Rain
7:28 PM 62.6 °F 57.2 °F 82% 30.19 in 10.0 mi SE 6.9 mph - N/A Rain Light Rain
7:40 PM 62.6 °F 57.2 °F 82% 30.17 in 10.0 mi ESE 2.3 mph - N/A   Partly Cloudy
7:58 PM 61.7 °F 56.3 °F 82% 30.02 in 10.0 mi NE 11.5 mph 18.4 mph 0.02 in   Scattered Clouds
8:58 PM 64.0 °F 55.9 °F 75% 29.99 in 10.0 mi East 4.6 mph - N/A   Clear
9:58 PM 62.6 °F 56.5 °F 80% 30.00 in 10.0 mi ESE 4.6 mph - N/A   Mostly Cloudy
10:58 PM 63.5 °F 55.0 °F 74% 30.01 in 10.0 mi Variable 4.6 mph - N/A   Scattered Clouds
11:58 PM 62.6 °F 55.0 °F 76% 29.98 in 10.0 mi East 5.8 mph - N/A   Overcast